Location: Arbocrest Acres
(39.2134°N, 84.4144°W)
Time: 21:10:45
(UTC+00:00)

X-37B - Pass Details

Date: 06 December 2022
Orbit: 277 x 277 km, 45.0° (Epoch: 01 November)

Event Time Altitude Azimuth Distance (km) Brightness Sun altitude
Rises 23:27:32 0° 225° (SW) 1,902 5.3 -13.8°
Reaches altitude 10° 23:29:31 10° 215° (SW) 1,093 3.7 -14.2°
Maximum altitude 23:31:46 33° 148° (SSE) 492 0.9 -14.6°
Enters shadow 23:32:02 32° 132° (SE) 506 0.9 -14.6°
